Weather History for Sexton Summit, OR

Change the Weather History Date:

Monday, January 14, 2013

  Actual Average Record
Temperature  
Mean Temperature 26 °F -  
Max Temperature 32 °F 40 °F 64 °F (2009)
Min Temperature 21 °F 32 °F 21 °F (1997)
Degree Days  
Heating Degree Days 38    
Moisture  
Dew Point 14 °F    
Average Humidity 57    
Maximum Humidity 72    
Minimum Humidity 40    
Precipitation  
Precipitation 0.00 in - - ()
Sea Level Pressure  
Sea Level Pressure 30.47 in    
Wind  
Wind Speed 9 mph (East)    
Max Wind Speed 14 mph    
Max Gust Speed -    
Visibility 10 miles    
Events      
Averages and records for this station are not official NWS values.
T = Trace of Precipitation, MM = Missing Value Source: NWS Daily Summary

Daily Weather History Graph

Daily Weather History Graph

Search for Another Location

Airport:

Trip Planner

Search our weather history database for the weather conditions in past years. The results will help you decide how hot, cold, wet, or windy it might be!

Date:

Astronomy

Jan. 14, 2013 Rise Set
Actual Time 7:41 AM PST 5:04 PM PST
Civil Twilight 7:09 AM PST 5:35 PM PST
Nautical Twilight 6:34 AM PST 6:10 PM PST
Astronomical Twilight 6:01 AM PST 6:44 PM PST
Moon 9:12 AM PST (1/14) 9:02 PM PST (1/14)
Length of Visible Light 10h 26m
Length of Day
9h 23m
Waxing Crescent, 12% of the Moon is Illuminated
Jan 14
Waxing Crescent
Jan 18
First Quarter
Jan 26
Full
Feb 3
Last Quarter
Feb 9
New

Hourly Weather History & Observations

Time (PST) Temp. Windchill Dew Point Humidity Pressure Visibility Wind Dir Wind Speed Gust Speed Precip Events Conditions
12:56 AM 23.0 °F 11.7 °F 15.1 °F 72% 30.41 in 10.0 mi ESE 11.5 mph - N/A   Clear
1:56 AM 23.0 °F 12.4 °F 12.9 °F 65% 30.42 in 10.0 mi ESE 10.4 mph - N/A   Clear
2:56 AM 23.0 °F 11.1 °F 12.9 °F 65% 30.42 in 10.0 mi ESE 12.7 mph - N/A   Clear
3:56 AM 21.9 °F 9.2 °F 12.0 °F 66% 30.42 in 10.0 mi ESE 13.8 mph - N/A   Clear
4:56 AM 21.0 °F 8.6 °F 12.0 °F 68% 30.44 in 10.0 mi ESE 12.7 mph - N/A   Clear
5:56 AM 21.9 °F 11.0 °F 10.9 °F 63% 30.44 in 10.0 mi SE 10.4 mph - N/A   Clear
6:56 AM 21.9 °F 9.2 °F 10.0 °F 60% 30.45 in 10.0 mi ESE 13.8 mph - N/A   Clear
7:56 AM 23.0 °F 12.4 °F 10.0 °F 58% 30.46 in 10.0 mi SE 10.4 mph - N/A   Clear
8:56 AM 24.1 °F 13.1 °F 12.0 °F 60% 30.48 in 10.0 mi SE 11.5 mph - N/A   Clear
9:56 AM 26.1 °F 18.4 °F 12.0 °F 55% 30.48 in 10.0 mi ESE 6.9 mph - N/A   Clear
10:56 AM 28.9 °F 25.2 °F 17.1 °F 61% 30.48 in 10.0 mi SE 3.5 mph - N/A   Clear
11:56 AM 32.0 °F - 18.0 °F 56% 30.47 in 10.0 mi Calm Calm - N/A   Clear
12:56 PM 32.0 °F - 16.0 °F 52% 30.47 in 10.0 mi Calm Calm - N/A   Clear
1:56 PM 32.0 °F 28.7 °F 19.0 °F 59% 30.46 in 10.0 mi ENE 3.5 mph - N/A   Clear
2:56 PM 30.9 °F 24.3 °F 19.9 °F 64% 30.48 in 10.0 mi ENE 6.9 mph - N/A   Clear
3:56 PM 30.0 °F 22.4 °F 12.0 °F 47% 30.50 in 10.0 mi NNE 8.1 mph - N/A   Clear
4:56 PM 30.0 °F 21.7 °F 18.0 °F 61% 30.50 in 10.0 mi NNE 9.2 mph - N/A   Clear
5:56 PM 30.9 °F 25.2 °F 16.0 °F 54% 30.49 in 10.0 mi NE 5.8 mph - N/A   Clear
6:56 PM 28.9 °F 19.2 °F 10.9 °F 47% 30.50 in 10.0 mi NNE 11.5 mph - N/A   Clear
7:56 PM 28.0 °F 18.6 °F 9.0 °F 45% 30.50 in 10.0 mi North 10.4 mph - N/A   Clear
8:56 PM 28.9 °F 20.4 °F 9.0 °F 43% 30.50 in 10.0 mi NNE 9.2 mph - N/A   Clear
9:56 PM 32.0 °F 28.7 °F 10.0 °F 40% 30.48 in 10.0 mi SE 3.5 mph - N/A   Clear
10:56 PM 28.9 °F 25.2 °F 19.0 °F 67% 30.49 in 10.0 mi SE 3.5 mph - N/A   Clear
11:56 PM 30.0 °F 23.2 °F 10.9 °F 45% 30.48 in 10.0 mi ENE 6.9 mph - N/A   Clear